owner,sensor,date,latitude,longitude,vertical_datum,wind_speed,wind_to_direction,wind_speed_of_gust,qcFlag 
LUMCON,ioos:station:LUMCON:101:1,2019-07-01T00:00:00Z,29.2533,-90.6633,1.0,2.7,217.0,2.9,'11111222,11111222,11111222' 
LUMCON,ioos:station:LUMCON:101:1,2019-07-01T00:15:00Z,29.2533,-90.6633,1.0,1.8,217.0,2.1,'11111222,11111222,11111222' 
LUMCON,ioos:station:LUMCON:101:1,2019-07-01T00:30:00Z,29.2533,-90.6633,1.0,3.2,208.0,3.3,'11111222,11111222,11111222' 
LUMCON,ioos:station:LUMCON:101:1,2019-07-01T00:45:00Z,29.2533,-90.6633,1.0,2.6,204.0,2.7,'11111222,11111222,11111222' 
LUMCON,ioos:station:LUMCON:101:1,2019-07-01T01:00:00Z,29.2533,-90.6633,1.0,3.1,202.0,3.1,'11111222,11111222,11111222' 
LUMCON,ioos:station:LUMCON:101:1,2019-07-01T01:15:00Z,29.2533,-90.6633,1.0,2.5,213.0,2.7,'11111222,11111222,11111222' 
LUMCON,ioos:station:LUMCON:101:1,2019-07-01T01:30:00Z,29.2533,-90.6633,1.0,2.5,214.0,2.6,'11111222,11111222,11111222' 
LUMCON,ioos:station:LUMCON:101:1,2019-07-01T01:45:00Z,29.2533,-90.6633,1.0,2.5,218.0,2.7,'11111222,11111222,11111222' 
LUMCON,ioos:station:LUMCON:101:1,2019-07-01T02:00:00Z,29.2533,-90.6633,1.0,2.2,214.0,2.3,'11111222,11111222,11111222' 
LUMCON,ioos:station:LUMCON:101:1,2019-07-01T02:15:00Z,29.2533,-90.6633,1.0,2.2,216.0,2.3,'11111222,11111222,11111222' 
LUMCON,ioos:station:LUMCON:101:1,2019-07-01T02:30:00Z,29.2533,-90.6633,1.0,2.1,220.0,2.2,'11111222,11111222,11111222' 
LUMCON,ioos:station:LUMCON:101:1,2019-07-01T02:45:00Z,29.2533,-90.6633,1.0,2.2,245.0,2.3,'11111222,11111222,11111222' 
LUMCON,ioos:station:LUMCON:101:1,2019-07-01T03:00:00Z,29.2533,-90.6633,1.0,2.1,234.0,2.5,'11111222,11111222,11111222' 
LUMCON,ioos:station:LUMCON:101:1,2019-07-01T03:15:00Z,29.2533,-90.6633,1.0,2.0,231.0,2.2,'11111222,11111222,11111222' 
LUMCON,ioos:station:LUMCON:101:1,2019-07-01T03:30:00Z,29.2533,-90.6633,1.0,1.9,219.0,2.0,'11111222,11111222,11111222' 
LUMCON,ioos:station:LUMCON:101:1,2019-07-01T03:45:00Z,29.2533,-90.6633,1.0,2.7,214.0,2.9,'11111222,11111222,11111222' 
LUMCON,ioos:station:LUMCON:101:1,2019-07-01T04:00:00Z,29.2533,-90.6633,1.0,1.9,203.0,2.0,'11111222,11111222,11111222' 
LUMCON,ioos:station:LUMCON:101:1,2019-07-01T04:15:00Z,29.2533,-90.6633,1.0,2.0,199.0,2.1,'11111222,11111222,11111222' 
LUMCON,ioos:station:LUMCON:101:1,2019-07-01T04:30:00Z,29.2533,-90.6633,1.0,1.4,175.0,1.5,'11111222,11111222,11111222' 
LUMCON,ioos:station:LUMCON:101:1,2019-07-01T04:45:00Z,29.2533,-90.6633,1.0,1.8,191.0,1.9,'11111222,11111222,11111222' 
LUMCON,ioos:station:LUMCON:101:1,2019-07-01T05:00:00Z,29.2533,-90.6633,1.0,1.9,186.0,2.0,'11111222,11111222,11111222' 
LUMCON,ioos:station:LUMCON:101:1,2019-07-01T05:15:00Z,29.2533,-90.6633,1.0,1.6,201.0,1.6,'11111222,11111222,11111222' 
LUMCON,ioos:station:LUMCON:101:1,2019-07-01T05:30:00Z,29.2533,-90.6633,1.0,1.0,214.0,1.0,'11111222,11111222,11111222' 
LUMCON,ioos:station:LUMCON:101:1,2019-07-01T05:45:00Z,29.2533,-90.6633,1.0,1.4,188.0,1.4,'11111222,11111222,11111222' 
LUMCON,ioos:station:LUMCON:101:1,2019-07-01T06:00:00Z,29.2533,-90.6633,1.0,1.2,174.0,1.2,'11111222,11111222,11111222' 
LUMCON,ioos:station:LUMCON:101:1,2019-07-01T06:15:00Z,29.2533,-90.6633,1.0,1.9,171.0,2.0,'11111222,11111222,11111222' 
LUMCON,ioos:station:LUMCON:101:1,2019-07-01T21:30:00Z,29.2533,-90.6633,1.0,4.4,103.0,4.8,'11111222,11111222,11111222' 
LUMCON,ioos:station:LUMCON:101:1,2019-07-01T21:45:00Z,29.2533,-90.6633,1.0,5.2,103.0,5.5,'11111222,11111222,11111222' 
LUMCON,ioos:station:LUMCON:101:1,2019-07-01T22:00:00Z,29.2533,-90.6633,1.0,4.0,112.0,4.8,'11111222,11111222,11111222' 
LUMCON,ioos:station:LUMCON:101:1,2019-07-01T22:15:00Z,29.2533,-90.6633,1.0,6.0,132.0,6.4,'11111222,11111222,11111222' 
LUMCON,ioos:station:LUMCON:101:1,2019-07-01T22:30:00Z,29.2533,-90.6633,1.0,5.8,122.0,6.1,'11111222,11111222,11111222' 
LUMCON,ioos:station:LUMCON:101:1,2019-07-01T22:45:00Z,29.2533,-90.6633,1.0,4.2,114.0,4.5,'11111222,11111222,11111222' 
LUMCON,ioos:station:LUMCON:101:1,2019-07-01T23:00:00Z,29.2533,-90.6633,1.0,5.7,143.0,6.2,'11111222,11111222,11111222' 
LUMCON,ioos:station:LUMCON:101:1,2019-07-01T23:15:00Z,29.2533,-90.6633,1.0,5.4,115.0,5.9,'11111222,11111222,11111222' 
LUMCON,ioos:station:LUMCON:101:1,2019-07-01T23:30:00Z,29.2533,-90.6633,1.0,7.2,123.0,7.4,'11111222,11111222,11111222' 
LUMCON,ioos:station:LUMCON:101:1,2019-07-01T23:45:00Z,29.2533,-90.6633,1.0,5.1,119.0,5.5,'11111222,11111222,11111222' 
LUMCON,ioos:station:LUMCON:101:1,2019-07-02T00:00:00Z,29.2533,-90.6633,1.0,6.4,132.0,6.7,'11111222,11111222,11111222' 
LUMCON,ioos:station:LUMCON:101:1,2019-07-02T00:15:00Z,29.2533,-90.6633,1.0,5.9,131.0,6.1,'11111222,11111222,11111222' 
LUMCON,ioos:station:LUMCON:101:1,2019-07-02T00:30:00Z,29.2533,-90.6633,1.0,3.8,139.0,4.2,'11111222,11111222,11111222' 
LUMCON,ioos:station:LUMCON:101:1,2019-07-02T00:45:00Z,29.2533,-90.6633,1.0,4.6,134.0,4.9,'11111222,11111222,11111222' 
LUMCON,ioos:station:LUMCON:101:1,2019-07-02T01:00:00Z,29.2533,-90.6633,1.0,3.8,172.0,4.3,'11111222,11111222,11111222' 
LUMCON,ioos:station:LUMCON:101:1,2019-07-02T01:15:00Z,29.2533,-90.6633,1.0,3.6,149.0,4.2,'11111222,11111222,11111222' 
LUMCON,ioos:station:LUMCON:101:1,2019-07-02T01:30:00Z,29.2533,-90.6633,1.0,7.2,165.0,7.8,'11111222,11111222,11111222' 
LUMCON,ioos:station:LUMCON:101:1,2019-07-02T01:45:00Z,29.2533,-90.6633,1.0,4.1,167.0,4.2,'11111222,11111222,11111222' 
LUMCON,ioos:station:LUMCON:101:1,2019-07-02T02:00:00Z,29.2533,-90.6633,1.0,4.0,156.0,4.3,'11111222,11111222,11111222' 
LUMCON,ioos:station:LUMCON:101:1,2019-07-02T02:15:00Z,29.2533,-90.6633,1.0,4.5,174.0,4.7,'11111222,11111222,11111222' 
LUMCON,ioos:station:LUMCON:101:1,2019-07-02T02:30:00Z,29.2533,-90.6633,1.0,4.4,156.0,4.6,'11111222,11111222,11111222' 
LUMCON,ioos:station:LUMCON:101:1,2019-07-02T02:45:00Z,29.2533,-90.6633,1.0,2.7,154.0,3.0,'11111222,11111222,11111222' 
LUMCON,ioos:station:LUMCON:101:1,2019-07-02T03:00:00Z,29.2533,-90.6633,1.0,2.9,160.0,3.1,'11111222,11111222,11111222' 
LUMCON,ioos:station:LUMCON:101:1,2019-07-02T03:15:00Z,29.2533,-90.6633,1.0,2.2,170.0,2.3,'11111222,11111222,11111222' 
LUMCON,ioos:station:LUMCON:101:1,2019-07-02T03:30:00Z,29.2533,-90.6633,1.0,2.7,162.0,2.8,'11111222,11111222,11111222' 
LUMCON,ioos:station:LUMCON:101:1,2019-07-02T03:45:00Z,29.2533,-90.6633,1.0,2.7,152.0,2.9,'11111222,11111222,11111222' 
LUMCON,ioos:station:LUMCON:101:1,2019-07-02T04:00:00Z,29.2533,-90.6633,1.0,2.3,157.0,2.5,'11111222,11111222,11111222' 
LUMCON,ioos:station:LUMCON:101:1,2019-07-02T04:15:00Z,29.2533,-90.6633,1.0,1.8,152.0,1.9,'11111222,11111222,11111222' 
LUMCON,ioos:station:LUMCON:101:1,2019-07-02T04:30:00Z,29.2533,-90.6633,1.0,1.9,182.0,2.0,'11111222,11111222,11111222' 
LUMCON,ioos:station:LUMCON:101:1,2019-07-02T04:45:00Z,29.2533,-90.6633,1.0,2.7,158.0,2.9,'11111222,11111222,11111222' 
LUMCON,ioos:station:LUMCON:101:1,2019-07-02T05:00:00Z,29.2533,-90.6633,1.0,2.6,166.0,3.2,'11111222,11111222,11111222' 
LUMCON,ioos:station:LUMCON:101:1,2019-07-02T05:15:00Z,29.2533,-90.6633,1.0,3.3,192.0,3.5,'11111222,11111222,11111222' 
LUMCON,ioos:station:LUMCON:101:1,2019-07-02T05:30:00Z,29.2533,-90.6633,1.0,2.7,177.0,2.9,'11111222,11111222,11111222' 
LUMCON,ioos:station:LUMCON:101:1,2019-07-02T05:45:00Z,29.2533,-90.6633,1.0,2.5,178.0,2.6,'11111222,11111222,11111222' 
LUMCON,ioos:station:LUMCON:101:1,2019-07-02T06:00:00Z,29.2533,-90.6633,1.0,2.3,181.0,2.4,'11111222,11111222,11111222' 
LUMCON,ioos:station:LUMCON:101:1,2019-07-02T06:15:00Z,29.2533,-90.6633,1.0,1.5,203.0,1.5,'11111222,11111222,11111222' 
LUMCON,ioos:station:LUMCON:101:1,2019-07-02T06:30:00Z,29.2533,-90.6633,1.0,2.2,179.0,2.3,'11111222,11111222,11111222' 
LUMCON,ioos:station:LUMCON:101:1,2019-07-02T06:45:00Z,29.2533,-90.6633,1.0,2.6,179.0,2.8,'11111222,11111222,11111222' 
LUMCON,ioos:station:LUMCON:101:1,2019-07-02T07:00:00Z,29.2533,-90.6633,1.0,2.3,182.0,2.4,'11111222,11111222,11111222' 
LUMCON,ioos:station:LUMCON:101:1,2019-07-02T07:15:00Z,29.2533,-90.6633,1.0,3.4,165.0,3.7,'11111222,11111222,11111222' 
LUMCON,ioos:station:LUMCON:101:1,2019-07-02T07:30:00Z,29.2533,-90.6633,1.0,3.0,164.0,3.3,'11111222,11111222,11111222' 
LUMCON,ioos:station:LUMCON:101:1,2019-07-02T07:45:00Z,29.2533,-90.6633,1.0,2.9,163.0,3.0,'11111222,11111222,11111222' 
LUMCON,ioos:station:LUMCON:101:1,2019-07-02T08:00:00Z,29.2533,-90.6633,1.0,2.5,166.0,2.5,'11111222,11111222,11111222' 
LUMCON,ioos:station:LUMCON:101:1,2019-07-02T08:15:00Z,29.2533,-90.6633,1.0,2.4,175.0,2.6,'11111222,11111222,11111222' 
LUMCON,ioos:station:LUMCON:101:1,2019-07-02T08:30:00Z,29.2533,-90.6633,1.0,2.9,184.0,3.1,'11111222,11111222,11111222' 
LUMCON,ioos:station:LUMCON:101:1,2019-07-02T08:45:00Z,29.2533,-90.6633,1.0,3.6,176.0,3.9,'11111222,11111222,11111222' 
LUMCON,ioos:station:LUMCON:101:1,2019-07-02T09:00:00Z,29.2533,-90.6633,1.0,4.1,173.0,4.3,'11111222,11111222,11111222' 
LUMCON,ioos:station:LUMCON:101:1,2019-07-02T09:15:00Z,29.2533,-90.6633,1.0,3.7,183.0,3.9,'11111222,11111222,11111222' 
LUMCON,ioos:station:LUMCON:101:1,2019-07-02T09:30:00Z,29.2533,-90.6633,1.0,2.5,172.0,2.6,'11111222,11111222,11111222' 
LUMCON,ioos:station:LUMCON:101:1,2019-07-02T09:45:00Z,29.2533,-90.6633,1.0,2.9,183.0,3.0,'11111222,11111222,11111222' 
LUMCON,ioos:station:LUMCON:101:1,2019-07-02T10:00:00Z,29.2533,-90.6633,1.0,3.3,183.0,3.3,'11111222,11111222,11111222' 
LUMCON,ioos:station:LUMCON:101:1,2019-07-02T10:15:00Z,29.2533,-90.6633,1.0,2.7,184.0,2.7,'11111222,11111222,11111222' 
LUMCON,ioos:station:LUMCON:101:1,2019-07-02T10:30:00Z,29.2533,-90.6633,1.0,2.7,171.0,2.8,'11111222,11111222,11111222' 
LUMCON,ioos:station:LUMCON:101:1,2019-07-02T10:45:00Z,29.2533,-90.6633,1.0,2.4,180.0,2.5,'11111222,11111222,11111222' 
LUMCON,ioos:station:LUMCON:101:1,2019-07-02T11:00:00Z,29.2533,-90.6633,1.0,1.2,229.0,1.2,'11111222,11111222,11111222' 
LUMCON,ioos:station:LUMCON:101:1,2019-07-02T11:15:00Z,29.2533,-90.6633,1.0,1.9,228.0,2.0,'11111222,11111222,11111222' 
LUMCON,ioos:station:LUMCON:101:1,2019-07-02T11:30:00Z,29.2533,-90.6633,1.0,0.9,236.0,1.0,'11111222,11111222,11111222' 
LUMCON,ioos:station:LUMCON:101:1,2019-07-02T11:45:00Z,29.2533,-90.6633,1.0,0.8,230.0,0.8,'11111222,11111222,11111222' 
LUMCON,ioos:station:LUMCON:101:1,2019-07-02T12:00:00Z,29.2533,-90.6633,1.0,0.4,293.0,0.4,'11111222,11111222,11111222' 
LUMCON,ioos:station:LUMCON:101:1,2019-07-02T12:15:00Z,29.2533,-90.6633,1.0,0.7,11.0,0.8,'11111222,11111222,11111222' 
LUMCON,ioos:station:LUMCON:101:1,2019-07-02T12:30:00Z,29.2533,-90.6633,1.0,0.9,17.0,0.9,'11111222,11111222,11111222' 
LUMCON,ioos:station:LUMCON:101:1,2019-07-02T12:45:00Z,29.2533,-90.6633,1.0,0.0,0.0,0.0,'11111222,11111222,11111222' 
LUMCON,ioos:station:LUMCON:101:1,2019-07-02T13:00:00Z,29.2533,-90.6633,1.0,1.1,26.0,1.1,'11111222,11111222,11111222' 
LUMCON,ioos:station:LUMCON:101:1,2019-07-02T13:15:00Z,29.2533,-90.6633,1.0,0.9,95.0,0.9,'11111222,11111222,11111222' 
LUMCON,ioos:station:LUMCON:101:1,2019-07-02T13:30:00Z,29.2533,-90.6633,1.0,1.8,88.0,1.9,'11111222,11111222,11111222' 
LUMCON,ioos:station:LUMCON:101:1,2019-07-02T13:45:00Z,29.2533,-90.6633,1.0,2.0,46.0,2.0,'11111222,11111222,11111222' 
LUMCON,ioos:station:LUMCON:101:1,2019-07-02T14:00:00Z,29.2533,-90.6633,1.0,3.0,80.0,3.3,'11111222,11111222,11111222' 
LUMCON,ioos:station:LUMCON:101:1,2019-07-02T14:15:00Z,29.2533,-90.6633,1.0,0.8,86.0,0.9,'11111222,11111222,11111222' 
LUMCON,ioos:station:LUMCON:101:1,2019-07-02T14:30:00Z,29.2533,-90.6633,1.0,3.7,63.0,4.0,'11111222,11111222,11111222' 
LUMCON,ioos:station:LUMCON:101:1,2019-07-02T14:45:00Z,29.2533,-90.6633,1.0,2.0,97.0,2.1,'11111222,11111222,11111222' 
LUMCON,ioos:station:LUMCON:101:1,2019-07-02T15:00:00Z,29.2533,-90.6633,1.0,2.3,36.0,2.4,'11111222,11111222,11111222' 
LUMCON,ioos:station:LUMCON:101:1,2019-07-02T15:15:00Z,29.2533,-90.6633,1.0,5.3,247.0,6.1,'11111222,11111222,11111222' 
LUMCON,ioos:station:LUMCON:101:1,2019-07-02T15:30:00Z,29.2533,-90.6633,1.0,10.4,284.0,11.0,'11111222,11111222,11111222' 
LUMCON,ioos:station:LUMCON:101:1,2019-07-02T15:45:00Z,29.2533,-90.6633,1.0,6.3,294.0,6.6,'11111222,11111222,11111222' 
LUMCON,ioos:station:LUMCON:101:1,2019-07-02T16:00:00Z,29.2533,-90.6633,1.0,3.3,29.0,3.6,'11111222,11111222,11111222' 
LUMCON,ioos:station:LUMCON:101:1,2019-07-02T16:15:00Z,29.2533,-90.6633,1.0,5.5,26.0,5.9,'11111222,11111222,11111222' 
LUMCON,ioos:station:LUMCON:101:1,2019-07-02T16:30:00Z,29.2533,-90.6633,1.0,4.5,29.0,4.9,'11111222,11111222,11111222' 
LUMCON,ioos:station:LUMCON:101:1,2019-07-02T16:45:00Z,29.2533,-90.6633,1.0,2.5,10.0,2.7,'11111222,11111222,11111222' 
LUMCON,ioos:station:LUMCON:101:1,2019-07-02T17:00:00Z,29.2533,-90.6633,1.0,1.1,19.0,1.2,'11111222,11111222,11111222' 
LUMCON,ioos:station:LUMCON:101:1,2019-07-02T17:15:00Z,29.2533,-90.6633,1.0,0.9,35.0,1.0,'11111222,11111222,11111222' 
LUMCON,ioos:station:LUMCON:101:1,2019-07-02T17:30:00Z,29.2533,-90.6633,1.0,1.8,31.0,1.9,'11111222,11111222,11111222' 
LUMCON,ioos:station:LUMCON:101:1,2019-07-02T17:45:00Z,29.2533,-90.6633,1.0,0.8,353.0,0.8,'11111222,11111222,11111222' 
LUMCON,ioos:station:LUMCON:101:1,2019-07-02T18:00:00Z,29.2533,-90.6633,1.0,1.0,211.0,1.1,'11111222,11111222,11111222' 
LUMCON,ioos:station:LUMCON:101:1,2019-07-02T18:15:00Z,29.2533,-90.6633,1.0,1.7,214.0,1.8,'11111222,11111222,11111222' 
LUMCON,ioos:station:LUMCON:101:1,2019-07-02T18:30:00Z,29.2533,-90.6633,1.0,3.3,201.0,3.4,'11111222,11111222,11111222' 
LUMCON,ioos:station:LUMCON:101:1,2019-07-02T18:45:00Z,29.2533,-90.6633,1.0,2.3,200.0,2.4,'11111222,11111222,11111222' 
LUMCON,ioos:station:LUMCON:101:1,2019-07-02T19:00:00Z,29.2533,-90.6633,1.0,3.0,178.0,3.1,'11111222,11111222,11111222' 
LUMCON,ioos:station:LUMCON:101:1,2019-07-02T19:15:00Z,29.2533,-90.6633,1.0,3.3,175.0,3.5,'11111222,11111222,11111222' 
LUMCON,ioos:station:LUMCON:101:1,2019-07-02T19:30:00Z,29.2533,-90.6633,1.0,3.5,137.0,3.9,'11111222,11111222,11111222' 
LUMCON,ioos:station:LUMCON:101:1,2019-07-02T19:45:00Z,29.2533,-90.6633,1.0,3.3,113.0,3.8,'11111222,11111222,11111222' 
LUMCON,ioos:station:LUMCON:101:1,2019-07-02T20:00:00Z,29.2533,-90.6633,1.0,2.9,94.0,3.1,'11111222,11111222,11111222' 
LUMCON,ioos:station:LUMCON:101:1,2019-07-02T20:15:00Z,29.2533,-90.6633,1.0,3.3,80.0,3.6,'11111222,11111222,11111222' 
LUMCON,ioos:station:LUMCON:101:1,2019-07-02T20:30:00Z,29.2533,-90.6633,1.0,3.2,96.0,3.4,'11111222,11111222,11111222' 
LUMCON,ioos:station:LUMCON:101:1,2019-07-02T20:45:00Z,29.2533,-90.6633,1.0,2.4,122.0,2.8,'11111222,11111222,11111222' 
LUMCON,ioos:station:LUMCON:101:1,2019-07-02T21:00:00Z,29.2533,-90.6633,1.0,2.7,137.0,3.1,'11111222,11111222,11111222' 
LUMCON,ioos:station:LUMCON:101:1,2019-07-02T21:15:00Z,29.2533,-90.6633,1.0,2.7,151.0,2.8,'11111222,11111222,11111222' 
LUMCON,ioos:station:LUMCON:101:1,2019-07-02T21:30:00Z,29.2533,-90.6633,1.0,3.8,136.0,4.1,'11111222,11111222,11111222' 
LUMCON,ioos:station:LUMCON:101:1,2019-07-02T21:45:00Z,29.2533,-90.6633,1.0,2.5,158.0,2.9,'11111222,11111222,11111222' 
LUMCON,ioos:station:LUMCON:101:1,2019-07-02T22:00:00Z,29.2533,-90.6633,1.0,2.0,182.0,2.1,'11111222,11111222,11111222' 
LUMCON,ioos:station:LUMCON:101:1,2019-07-02T22:15:00Z,29.2533,-90.6633,1.0,2.2,143.0,2.2,'11111222,11111222,11111222' 
LUMCON,ioos:station:LUMCON:101:1,2019-07-02T22:30:00Z,29.2533,-90.6633,1.0,2.7,92.0,2.9,'11111222,11111222,11111222' 
LUMCON,ioos:station:LUMCON:101:1,2019-07-02T22:45:00Z,29.2533,-90.6633,1.0,2.8,147.0,3.0,'11111222,11111222,11111222' 
LUMCON,ioos:station:LUMCON:101:1,2019-07-02T23:00:00Z,29.2533,-90.6633,1.0,2.5,142.0,2.7,'11111222,11111222,11111222' 
LUMCON,ioos:station:LUMCON:101:1,2019-07-02T23:15:00Z,29.2533,-90.6633,1.0,3.1,147.0,3.2,'11111222,11111222,11111222' 
LUMCON,ioos:station:LUMCON:101:1,2019-07-02T23:30:00Z,29.2533,-90.6633,1.0,2.5,143.0,2.7,'11111222,11111222,11111222' 
LUMCON,ioos:station:LUMCON:101:1,2019-07-02T23:45:00Z,29.2533,-90.6633,1.0,2.5,163.0,2.6,'11111222,11111222,11111222' 
LUMCON,ioos:station:LUMCON:101:1,2019-07-03T00:00:00Z,29.2533,-90.6633,1.0,3.0,180.0,3.0,'11111222,11111222,11111222' 
LUMCON,ioos:station:LUMCON:101:1,2019-07-03T00:15:00Z,29.2533,-90.6633,1.0,1.5,184.0,1.6,'11111222,11111222,11111222' 
LUMCON,ioos:station:LUMCON:101:1,2019-07-03T00:30:00Z,29.2533,-90.6633,1.0,2.3,185.0,2.6,'11111222,11111222,11111222' 
LUMCON,ioos:station:LUMCON:101:1,2019-07-03T00:45:00Z,29.2533,-90.6633,1.0,1.9,205.0,2.1,'11111222,11111222,11111222' 
LUMCON,ioos:station:LUMCON:101:1,2019-07-03T01:00:00Z,29.2533,-90.6633,1.0,2.5,199.0,2.6,'11111222,11111222,11111222' 
LUMCON,ioos:station:LUMCON:101:1,2019-07-03T01:15:00Z,29.2533,-90.6633,1.0,2.6,201.0,2.8,'11111222,11111222,11111222' 
LUMCON,ioos:station:LUMCON:101:1,2019-07-03T01:30:00Z,29.2533,-90.6633,1.0,2.9,207.0,3.2,'11111222,11111222,11111222' 
LUMCON,ioos:station:LUMCON:101:1,2019-07-03T01:45:00Z,29.2533,-90.6633,1.0,4.4,204.0,4.5,'11111222,11111222,11111222' 
LUMCON,ioos:station:LUMCON:101:1,2019-07-03T02:00:00Z,29.2533,-90.6633,1.0,3.1,198.0,3.3,'11111222,11111222,11111222' 
LUMCON,ioos:station:LUMCON:101:1,2019-07-03T02:15:00Z,29.2533,-90.6633,1.0,2.6,210.0,2.7,'11111222,11111222,11111222' 
LUMCON,ioos:station:LUMCON:101:1,2019-07-03T02:30:00Z,29.2533,-90.6633,1.0,2.5,220.0,2.6,'11111222,11111222,11111222' 
LUMCON,ioos:station:LUMCON:101:1,2019-07-03T02:45:00Z,29.2533,-90.6633,1.0,2.2,212.0,2.5,'11111222,11111222,11111222' 
LUMCON,ioos:station:LUMCON:101:1,2019-07-03T03:00:00Z,29.2533,-90.6633,1.0,1.6,225.0,1.7,'11111222,11111222,11111222' 
LUMCON,ioos:station:LUMCON:101:1,2019-07-03T03:15:00Z,29.2533,-90.6633,1.0,1.1,221.0,1.1,'11111222,11111222,11111222' 
LUMCON,ioos:station:LUMCON:101:1,2019-07-03T03:30:00Z,29.2533,-90.6633,1.0,0.6,305.0,0.7,'11111222,11111222,11111222' 
LUMCON,ioos:station:LUMCON:101:1,2019-07-03T03:45:00Z,29.2533,-90.6633,1.0,0.6,38.0,0.6,'11111222,11111222,11111222' 
LUMCON,ioos:station:LUMCON:101:1,2019-07-03T04:00:00Z,29.2533,-90.6633,1.0,0.8,25.0,0.8,'11111222,11111222,11111222' 
LUMCON,ioos:station:LUMCON:101:1,2019-07-03T04:15:00Z,29.2533,-90.6633,1.0,0.7,32.0,0.7,'11111222,11111222,11111222' 
LUMCON,ioos:station:LUMCON:101:1,2019-07-03T04:30:00Z,29.2533,-90.6633,1.0,1.0,308.0,1.0,'11111222,11111222,11111222' 
LUMCON,ioos:station:LUMCON:101:1,2019-07-03T04:45:00Z,29.2533,-90.6633,1.0,1.5,3.0,1.5,'11111222,11111222,11111222' 
LUMCON,ioos:station:LUMCON:101:1,2019-07-03T05:00:00Z,29.2533,-90.6633,1.0,1.0,18.0,1.1,'11111222,11111222,11111222' 
LUMCON,ioos:station:LUMCON:101:1,2019-07-03T05:15:00Z,29.2533,-90.6633,1.0,1.7,25.0,1.8,'11111222,11111222,11111222' 
LUMCON,ioos:station:LUMCON:101:1,2019-07-03T05:30:00Z,29.2533,-90.6633,1.0,2.3,40.0,2.4,'11111222,11111222,11111222' 
LUMCON,ioos:station:LUMCON:101:1,2019-07-03T05:45:00Z,29.2533,-90.6633,1.0,1.6,64.0,2.0,'11111222,11111222,11111222' 
LUMCON,ioos:station:LUMCON:101:1,2019-07-03T06:00:00Z,29.2533,-90.6633,1.0,1.3,59.0,1.4,'11111222,11111222,11111222' 
LUMCON,ioos:station:LUMCON:101:1,2019-07-03T06:15:00Z,29.2533,-90.6633,1.0,0.4,16.0,0.5,'11111222,11111222,11111222' 
LUMCON,ioos:station:LUMCON:101:1,2019-07-03T06:30:00Z,29.2533,-90.6633,1.0,1.0,129.0,1.1,'11111222,11111222,11111222' 
LUMCON,ioos:station:LUMCON:101:1,2019-07-03T06:45:00Z,29.2533,-90.6633,1.0,2.3,162.0,2.4,'11111222,11111222,11111222' 
LUMCON,ioos:station:LUMCON:101:1,2019-07-03T07:00:00Z,29.2533,-90.6633,1.0,2.9,182.0,3.0,'11111222,11111222,11111222' 
LUMCON,ioos:station:LUMCON:101:1,2019-07-03T07:15:00Z,29.2533,-90.6633,1.0,2.2,167.0,2.5,'11111222,11111222,11111222' 
LUMCON,ioos:station:LUMCON:101:1,2019-07-03T07:30:00Z,29.2533,-90.6633,1.0,3.4,168.0,3.7,'11111222,11111222,11111222' 
LUMCON,ioos:station:LUMCON:101:1,2019-07-03T07:45:00Z,29.2533,-90.6633,1.0,2.7,166.0,3.0,'11111222,11111222,11111222' 
LUMCON,ioos:station:LUMCON:101:1,2019-07-03T08:00:00Z,29.2533,-90.6633,1.0,3.6,173.0,3.7,'11111222,11111222,11111222' 
LUMCON,ioos:station:LUMCON:101:1,2019-07-03T08:15:00Z,29.2533,-90.6633,1.0,3.2,189.0,3.4,'11111222,11111222,11111222' 
LUMCON,ioos:station:LUMCON:101:1,2019-07-03T08:30:00Z,29.2533,-90.6633,1.0,2.7,179.0,2.8,'11111222,11111222,11111222' 
LUMCON,ioos:station:LUMCON:101:1,2019-07-03T08:45:00Z,29.2533,-90.6633,1.0,1.5,205.0,1.5,'11111222,11111222,11111222' 
LUMCON,ioos:station:LUMCON:101:1,2019-07-03T09:00:00Z,29.2533,-90.6633,1.0,1.2,216.0,1.2,'11111222,11111222,11111222' 
LUMCON,ioos:station:LUMCON:101:1,2019-07-03T09:15:00Z,29.2533,-90.6633,1.0,1.9,252.0,2.0,'11111222,11111222,11111222' 
LUMCON,ioos:station:LUMCON:101:1,2019-07-03T09:30:00Z,29.2533,-90.6633,1.0,1.5,293.0,1.7,'11111222,11111222,11111222' 
LUMCON,ioos:station:LUMCON:101:1,2019-07-03T09:45:00Z,29.2533,-90.6633,1.0,1.6,292.0,1.7,'11111222,11111222,11111222' 
LUMCON,ioos:station:LUMCON:101:1,2019-07-03T10:00:00Z,29.2533,-90.6633,1.0,1.6,324.0,1.7,'11111222,11111222,11111222' 
LUMCON,ioos:station:LUMCON:101:1,2019-07-03T10:15:00Z,29.2533,-90.6633,1.0,1.8,334.0,1.9,'11111222,11111222,11111222' 
LUMCON,ioos:station:LUMCON:101:1,2019-07-03T10:30:00Z,29.2533,-90.6633,1.0,1.9,330.0,1.9,'11111222,11111222,11111222' 
LUMCON,ioos:station:LUMCON:101:1,2019-07-03T10:45:00Z,29.2533,-90.6633,1.0,1.8,329.0,2.0,'11111222,11111222,11111222' 
LUMCON,ioos:station:LUMCON:101:1,2019-07-03T11:00:00Z,29.2533,-90.6633,1.0,1.5,331.0,1.6,'11111222,11111222,11111222' 
LUMCON,ioos:station:LUMCON:101:1,2019-07-03T11:15:00Z,29.2533,-90.6633,1.0,1.6,358.0,1.7,'11111222,11111222,11111222' 
LUMCON,ioos:station:LUMCON:101:1,2019-07-03T11:30:00Z,29.2533,-90.6633,1.0,1.7,0.0,1.7,'11111222,11111222,11111222' 
LUMCON,ioos:station:LUMCON:101:1,2019-07-03T11:45:00Z,29.2533,-90.6633,1.0,1.5,24.0,1.5,'11111222,11111222,11111222' 
LUMCON,ioos:station:LUMCON:101:1,2019-07-03T12:00:00Z,29.2533,-90.6633,1.0,1.5,17.0,1.5,'11111222,11111222,11111222' 
LUMCON,ioos:station:LUMCON:101:1,2019-07-03T12:15:00Z,29.2533,-90.6633,1.0,1.4,27.0,1.5,'11111222,11111222,11111222' 
LUMCON,ioos:station:LUMCON:101:1,2019-07-03T12:30:00Z,29.2533,-90.6633,1.0,1.1,56.0,1.3,'11111222,11111222,11111222' 
LUMCON,ioos:station:LUMCON:101:1,2019-07-03T12:45:00Z,29.2533,-90.6633,1.0,1.4,63.0,1.5,'11111222,11111222,11111222' 
LUMCON,ioos:station:LUMCON:101:1,2019-07-03T13:00:00Z,29.2533,-90.6633,1.0,1.5,82.0,1.6,'11111222,11111222,11111222' 
LUMCON,ioos:station:LUMCON:101:1,2019-07-03T13:15:00Z,29.2533,-90.6633,1.0,2.6,59.0,2.8,'11111222,11111222,11111222' 
LUMCON,ioos:station:LUMCON:101:1,2019-07-03T13:30:00Z,29.2533,-90.6633,1.0,1.8,78.0,2.1,'11111222,11111222,11111222' 
LUMCON,ioos:station:LUMCON:101:1,2019-07-03T13:45:00Z,29.2533,-90.6633,1.0,2.3,79.0,2.3,'11111222,11111222,11111222' 
LUMCON,ioos:station:LUMCON:101:1,2019-07-03T14:00:00Z,29.2533,-90.6633,1.0,3.0,80.0,3.1,'11111222,11111222,11111222' 
LUMCON,ioos:station:LUMCON:101:1,2019-07-03T14:15:00Z,29.2533,-90.6633,1.0,2.1,66.0,2.8,'11111222,11111222,11111222' 
LUMCON,ioos:station:LUMCON:101:1,2019-07-03T14:30:00Z,29.2533,-90.6633,1.0,1.7,71.0,1.8,'11111222,11111222,11111222' 
LUMCON,ioos:station:LUMCON:101:1,2019-07-03T14:45:00Z,29.2533,-90.6633,1.0,2.6,92.0,2.8,'11111222,11111222,11111222' 
LUMCON,ioos:station:LUMCON:101:1,2019-07-03T15:00:00Z,29.2533,-90.6633,1.0,2.5,113.0,2.6,'11111222,11111222,11111222' 
LUMCON,ioos:station:LUMCON:101:1,2019-07-03T15:15:00Z,29.2533,-90.6633,1.0,1.4,73.0,1.8,'11111222,11111222,11111222' 
LUMCON,ioos:station:LUMCON:101:1,2019-07-03T15:30:00Z,29.2533,-90.6633,1.0,2.2,73.0,2.4,'11111222,11111222,11111222' 
LUMCON,ioos:station:LUMCON:101:1,2019-07-03T15:45:00Z,29.2533,-90.6633,1.0,2.9,95.0,3.0,'11111222,11111222,11111222' 
LUMCON,ioos:station:LUMCON:101:1,2019-07-03T16:00:00Z,29.2533,-90.6633,1.0,3.4,88.0,3.5,'11111222,11111222,11111222' 
LUMCON,ioos:station:LUMCON:101:1,2019-07-03T16:15:00Z,29.2533,-90.6633,1.0,3.6,107.0,3.7,'11111222,11111222,11111222' 
LUMCON,ioos:station:LUMCON:101:1,2019-07-03T16:30:00Z,29.2533,-90.6633,1.0,2.6,73.0,3.0,'11111222,11111222,11111222' 
LUMCON,ioos:station:LUMCON:101:1,2019-07-03T16:45:00Z,29.2533,-90.6633,1.0,3.4,98.0,3.7,'11111222,11111222,11111222' 
LUMCON,ioos:station:LUMCON:101:1,2019-07-03T17:00:00Z,29.2533,-90.6633,1.0,4.0,106.0,4.1,'11111222,11111222,11111222' 